Precipitable_Water
1.89 2.02 1.95 1.87 1.83 1.80 1.78 1.78 1.83 1.85 1.85 1.90 2.02 2.04 2.04 1.99 1.88 1.83 1.81 1.79 1.76 1.74 1.74 1.73 1.71 1.68 1.63 1.58 1.56 1.54 1.52 1.49 1.49 1.52 1.51 1.54 1.58 1.62 1.65 1.71 1.80 1.81 1.85 1.91 1.93 1.96 1.99 1.97 1.93 1.91 1.90 1.89 1.90 1.89 1.83 1.88 1.90 1.94 1.96 2.00 2.04 2.13 1.88 1.91 2.02 2.03 2.01 1.99 1.99 2.01 2.01 2.01 2.01 2.05 2.03 2.03 2.09 2.07 2.11 2.14 2.12 2.08 2.03 2.00 1.84
1.77 1.99 1.97 1.87 1.81 1.78 1.77 1.76 1.79 1.79 1.81 1.94 2.02 2.05 2.05 1.98 1.85 1.79 1.78 1.77 1.75 1.72 1.72 1.73 1.72 1.70 1.66 1.61 1.57 1.56 1.54 1.50 1.51 1.48 1.47 1.50 1.54 1.61 1.72 1.80 1.84 1.85 1.88 1.91 1.96 2.04 2.09 2.03 1.95 1.94 1.94 1.95 1.95 1.92 1.90 1.93 1.93 1.94 1.96 1.99 2.06 2.15 1.93 1.87 2.00 2.04 2.03 2.04 2.00 1.98 1.97 1.94 1.96 2.05 2.06 2.07 1.98 2.02 2.06 2.13 2.11 2.06 1.98 1.85 1.70
1.78 1.89 1.94 1.87 1.82 1.78 1.76 1.74 1.77 1.79 1.81 1.94 1.99 2.05 2.06 1.99 1.86 1.80 1.79 1.75 1.73 1.73 1.75 1.75 1.74 1.70 1.68 1.67 1.65 1.61 1.57 1.56 1.50 1.43 1.42 1.43 1.50 1.64 1.75 1.84 1.86 1.85 1.88 1.92 1.98 2.02 2.08 2.08 2.05 2.01 1.99 2.03 2.03 2.07 2.13 2.07 1.95 1.92 1.93 1.96 2.10 2.10 2.01 1.87 1.90 1.97 2.04 2.03 1.99 1.98 1.98 1.95 1.97 2.05 2.08 2.06 1.90 1.90 1.99 2.05 2.04 1.98 1.84 1.67 1.62
1.72 1.88 1.93 1.85 1.80 1.77 1.75 1.75 1.80 1.82 1.86 1.91 1.96 2.02 2.02 1.96 1.87 1.82 1.79 1.77 1.76 1.77 1.76 1.75 1.73 1.72 1.70 1.69 1.68 1.64 1.58 1.51 1.41 1.35 1.33 1.41 1.54 1.66 1.74 1.79 1.83 1.83 1.82 1.91 1.99 2.05 2.07 2.07 2.04 2.09 2.07 2.07 2.04 2.05 2.07 1.99 1.96 1.89 1.90 1.93 2.01 2.11 2.06 2.10 1.99 1.99 1.90 1.92 2.05 2.05 2.01 1.99 1.97 1.99 2.03 2.06 1.93 1.87 1.92 1.95 1.93 1.82 1.63 1.55 1.50
1.74 1.84 1.89 1.83 1.78 1.75 1.78 1.81 1.86 1.88 1.88 1.90 1.94 1.96 1.96 1.93 1.87 1.84 1.83 1.79 1.77 1.76 1.74 1.73 1.72 1.69 1.69 1.69 1.68 1.62 1.53 1.44 1.35 1.31 1.35 1.46 1.56 1.62 1.68 1.77 1.84 1.86 1.85 1.89 1.93 2.03 2.07 2.10 2.12 2.18 2.10 2.04 1.99 2.05 2.06 2.05 1.98 1.92 1.96 1.95 1.98 2.00 2.08 2.15 2.09 2.05 1.91 1.85 1.90 1.99 2.04 2.01 1.91 1.93 1.98 2.02 2.04 2.00 1.92 1.85 1.77 1.64 1.52 1.41 1.37
1.75 1.84 1.84 1.82 1.82 1.79 1.82 1.87 1.88 1.90 1.91 1.92 1.94 1.94 1.93 1.92 1.89 1.86 1.83 1.78 1.76 1.75 1.73 1.70 1.67 1.68 1.70 1.71 1.69 1.63 1.53 1.38 1.31 1.34 1.44 1.55 1.56 1.56 1.63 1.76 1.86 1.87 1.90 1.91 1.98 2.06 2.10 2.14 2.13 2.14 2.00 2.00 1.99 2.05 2.04 2.06 2.06 1.98 1.98 1.96 1.93 1.96 2.02 2.12 2.11 2.14 2.06 1.94 1.79 1.83 1.96 2.00 1.90 1.90 1.91 1.95 1.99 2.00 1.98 1.86 1.68 1.52 1.42 1.33 1.34
1.77 1.81 1.82 1.86 1.85 1.81 1.83 1.85 1.86 1.89 1.94 1.94 1.91 1.91 1.86 1.84 1.83 1.81 1.78 1.75 1.74 1.75 1.73 1.70 1.67 1.67 1.67 1.67 1.67 1.61 1.49 1.42 1.44 1.51 1.56 1.59 1.61 1.62 1.65 1.78 1.88 1.89 1.93 1.98 2.01 2.07 2.08 2.08 2.10 2.11 2.09 2.07 2.06 2.08 2.07 2.08 2.08 2.02 1.95 1.94 1.93 1.94 1.98 1.99 2.06 2.06 2.11 2.13 1.98 1.90 1.83 1.92 1.91 1.87 1.83 1.84 1.90 1.93 1.89 1.79 1.64 1.56 1.42 1.35 1.36
1.80 1.80 1.85 1.85 1.86 1.79 1.81 1.83 1.85 1.87 1.90 1.90 1.88 1.88 1.84 1.79 1.76 1.73 1.72 1.72 1.72 1.72 1.72 1.68 1.65 1.62 1.62 1.65 1.61 1.54 1.47 1.48 1.53 1.57 1.61 1.65 1.67 1.67 1.68 1.75 1.90 1.95 1.96 1.95 2.04 2.09 2.08 2.04 2.07 2.14 2.15 2.08 2.05 2.07 2.10 2.08 2.08 2.04 2.01 1.98 1.97 1.96 1.95 1.98 2.01 2.02 2.06 2.26 2.09 1.90 1.77 1.88 1.91 1.88 1.84 1.79 1.77 1.74 1.72 1.68 1.59 1.53 1.45 1.41 1.39
1.77 1.81 1.83 1.84 1.86 1.75 1.79 1.81 1.84 1.85 1.86 1.87 1.86 1.85 1.84 1.80 1.76 1.71 1.70 1.70 1.71 1.69 1.66 1.62 1.60 1.58 1.58 1.57 1.55 1.55 1.59 1.61 1.63 1.66 1.67 1.71 1.73 1.71 1.71 1.77 1.87 1.93 1.93 1.94 2.04 2.08 2.02 1.98 2.03 2.14 2.11 2.08 2.08 2.06 2.05 2.09 2.10 2.08 2.03 2.02 1.97 1.93 1.91 1.93 1.95 1.97 2.00 2.02 2.00 1.96 1.83 1.78 1.76 1.80 1.84 1.80 1.70 1.62 1.62 1.61 1.48 1.48 1.47 1.40 1.35
1.77 1.83 1.84 1.85 1.84 1.75 1.78 1.78 1.82 1.84 1.85 1.84 1.82 1.81 1.83 1.80 1.75 1.72 1.69 1.69 1.69 1.67 1.63 1.59 1.57 1.56 1.53 1.54 1.55 1.60 1.64 1.63 1.61 1.64 1.67 1.72 1.75 1.73 1.77 1.80 1.82 1.91 1.92 1.95 2.03 2.07 1.99 2.01 2.03 2.05 2.05 2.06 2.08 2.05 2.06 2.05 2.07 2.08 2.07 2.09 2.04 1.97 1.94 1.92 1.91 1.91 1.98 1.92 2.02 1.95 1.92 1.86 1.69 1.72 1.67 1.55 1.50 1.47 1.42 1.40 1.42 1.42 1.44 1.39 1.40
1.77 1.82 1.88 1.86 1.83 1.74 1.76 1.75 1.79 1.84 1.88 1.82 1.79 1.81 1.81 1.80 1.74 1.70 1.68 1.68 1.66 1.65 1.62 1.60 1.57 1.51 1.49 1.51 1.57 1.61 1.60 1.58 1.58 1.61 1.64 1.67 1.70 1.77 1.78 1.84 1.88 1.92 1.96 1.99 2.02 1.99 1.96 1.98 1.97 2.00 2.08 2.07 2.04 2.07 2.10 2.09 2.06 2.08 2.09 2.11 2.08 2.06 1.99 1.96 1.85 1.85 1.96 1.89 1.90 1.93 1.94 1.95 1.96 1.70 1.47 1.33 1.29 1.28 1.32 1.38 1.38 1.42 1.40 1.42 1.40
1.75 1.83 1.89 1.92 1.83 1.74 1.75 1.76 1.81 1.86 1.87 1.83 1.79 1.80 1.79 1.76 1.70 1.68 1.67 1.65 1.62 1.61 1.60 1.57 1.53 1.46 1.49 1.53 1.62 1.63 1.58 1.55 1.56 1.58 1.61 1.63 1.65 1.70 1.77 1.80 1.84 1.91 1.95 1.99 1.99 1.98 1.97 1.99 1.94 2.00 1.99 2.02 2.05 2.08 2.09 2.10 2.07 2.06 2.07 2.10 2.10 2.08 2.05 1.95 1.89 1.93 1.87 1.79 1.79 1.91 1.94 2.01 2.10 1.92 1.62 1.43 1.32 1.28 1.35 1.37 1.41 1.43 1.43 1.42 1.37
1.73 1.82 1.89 1.95 1.81 1.78 1.78 1.81 1.87 1.90 1.89 1.83 1.80 1.78 1.77 1.72 1.68 1.64 1.62 1.60 1.58 1.58 1.55 1.50 1.47 1.50 1.54 1.57 1.63 1.62 1.58 1.56 1.56 1.58 1.61 1.61 1.63 1.67 1.73 1.79 1.84 1.84 1.93 1.96 1.96 1.91 1.93 1.97 1.98 1.98 2.01 2.02 2.05 2.07 2.07 2.07 2.07 2.05 2.03 2.07 2.07 2.06 2.07 1.98 1.97 1.90 1.88 1.89 1.75 1.84 1.81 1.88 1.91 1.83 1.65 1.40 1.29 1.30 1.32 1.35 1.40 1.42 1.42 1.38 1.40
1.70 1.77 1.88 1.91 1.83 1.81 1.82 1.85 1.89 1.91 1.90 1.82 1.80 1.77 1.75 1.70 1.63 1.60 1.55 1.55 1.54 1.53 1.47 1.45 1.50 1.52 1.53 1.56 1.62 1.63 1.62 1.60 1.58 1.59 1.61 1.65 1.64 1.66 1.74 1.78 1.82 1.88 1.92 1.96 1.90 1.99 1.97 2.01 2.05 2.04 2.05 2.07 2.08 2.07 2.04 2.06 2.08 2.06 2.03 2.02 2.05 2.07 2.03 1.99 1.96 1.92 1.91 1.92 1.80 1.87 1.77 1.64 1.80 1.71 1.48 1.31 1.32 1.30 1.30 1.35 1.36 1.36 1.36 1.38 1.39
1.70 1.71 1.81 1.88 1.86 1.84 1.85 1.88 1.93 1.93 1.92 1.81 1.79 1.77 1.74 1.67 1.61 1.56 1.53 1.54 1.52 1.49 1.44 1.45 1.49 1.52 1.52 1.55 1.60 1.63 1.64 1.63 1.62 1.60 1.60 1.64 1.62 1.65 1.73 1.78 1.87 1.93 1.99 1.99 2.01 1.99 2.09 2.06 2.09 2.11 2.10 2.08 2.11 2.10 2.10 2.07 2.08 2.10 2.04 2.02 2.03 2.04 2.01 2.05 1.99 1.97 1.86 1.89 1.95 2.00 1.91 1.86 1.81 1.59 1.30 1.26 1.31 1.29 1.29 1.31 1.31 1.33 1.35 1.34 1.34
1.80 1.75 1.77 1.83 1.87 1.88 1.87 1.91 1.94 1.96 1.93 1.82 1.78 1.77 1.72 1.66 1.60 1.55 1.53 1.49 1.48 1.45 1.43 1.48 1.49 1.49 1.53 1.54 1.57 1.60 1.63 1.64 1.63 1.60 1.60 1.61 1.62 1.64 1.73 1.81 1.95 2.09 2.03 2.04 2.02 2.07 2.05 2.06 2.08 2.13 2.11 2.10 2.10 2.12 2.12 2.10 2.08 2.09 2.09 2.03 2.02 2.00 1.99 1.96 1.98 1.95 1.93 1.84 1.87 1.86 1.86 1.93 1.75 1.52 1.25 1.27 1.33 1.36 1.33 1.33 1.31 1.29 1.29 1.29 1.32
1.83 1.80 1.72 1.83 1.86 1.92 1.90 1.92 1.94 1.94 1.92 1.84 1.78 1.75 1.69 1.66 1.61 1.56 1.49 1.45 1.45 1.46 1.45 1.47 1.49 1.48 1.52 1.53 1.55 1.55 1.56 1.61 1.63 1.61 1.58 1.60 1.60 1.64 1.70 1.80 2.00 2.10 2.11 2.06 2.09 2.05 2.08 2.08 2.07 2.06 2.05 2.12 2.08 2.08 2.09 2.08 2.07 2.07 2.09 2.07 2.06 2.00 1.93 1.90 1.87 1.89 1.95 1.91 1.88 1.82 1.82 1.88 1.65 1.46 1.29 1.35 1.41 1.43 1.36 1.33 1.38 1.34 1.30 1.25 1.25
1.80 1.71 1.69 1.80 1.84 1.93 2.00 1.98 1.97 1.94 1.93 1.84 1.78 1.72 1.68 1.65 1.59 1.54 1.46 1.43 1.45 1.46 1.46 1.47 1.45 1.46 1.52 1.53 1.51 1.52 1.52 1.56 1.60 1.64 1.59 1.59 1.59 1.65 1.69 1.79 1.99 2.06 1.99 2.07 2.12 2.05 2.01 2.02 2.04 2.07 2.07 2.08 2.06 2.06 2.06 2.07 2.05 2.05 2.06 2.05 2.03 2.00 1.95 1.85 1.82 1.83 1.87 1.89 1.80 1.79 1.83 1.76 1.52 1.45 1.36 1.37 1.41 1.41 1.37 1.32 1.37 1.35 1.30 1.29 1.26
1.78 1.66 1.65 1.74 1.83 1.89 1.94 1.94 1.97 1.93 1.93 1.86 1.79 1.71 1.67 1.61 1.55 1.52 1.47 1.42 1.42 1.47 1.46 1.44 1.42 1.47 1.52 1.52 1.50 1.47 1.53 1.52 1.59 1.63 1.61 1.56 1.57 1.67 1.70 1.74 1.97 1.99 2.06 2.05 2.02 1.99 1.95 1.98 2.01 2.02 2.07 2.06 2.04 2.03 2.04 2.04 2.04 2.04 2.04 2.05 2.00 2.00 1.97 1.85 1.81 1.81 1.81 1.83 1.84 1.77 1.83 1.75 1.48 1.45 1.42 1.39 1.37 1.39 1.36 1.32 1.31 1.31 1.28 1.25 1.27
1.78 1.64 1.60 1.69 1.81 1.84 1.89 1.93 1.98 1.92 1.91 1.84 1.80 1.71 1.64 1.57 1.52 1.50 1.49 1.44 1.41 1.48 1.47 1.44 1.44 1.46 1.49 1.50 1.51 1.47 1.51 1.54 1.53 1.66 1.62 1.51 1.57 1.60 1.63 1.72 1.94 2.12 2.11 1.94 1.99 1.95 1.92 1.96 2.01 1.99 2.04 2.06 2.07 2.07 2.03 2.04 2.09 2.07 2.06 2.02 2.00 1.98 1.95 1.90 1.88 1.82 1.77 1.84 1.90 1.84 1.82 1.69 1.51 1.48 1.46 1.44 1.45 1.40 1.36 1.35 1.34 1.32 1.32 1.30 1.28
1.71 1.64 1.54 1.61 1.72 1.78 1.85 1.93 1.98 1.92 1.87 1.83 1.79 1.71 1.63 1.56 1.51 1.49 1.49 1.47 1.48 1.50 1.48 1.46 1.46 1.43 1.45 1.46 1.48 1.56 1.60 1.66 1.43 1.68 1.54 1.64 1.49 1.55 1.62 1.71 1.83 1.99 2.08 1.86 1.87 1.97 1.96 2.00 1.99 2.03 2.03 2.05 2.10 2.11 2.11 2.09 2.11 2.14 2.11 2.08 2.04 2.00 1.99 1.94 1.88 1.83 1.75 1.84 1.79 1.87 1.84 1.67 1.52 1.52 1.55 1.51 1.52 1.51 1.43 1.40 1.42 1.40 1.39 1.40 1.37
1.59 1.55 1.52 1.53 1.64 1.72 1.79 1.88 1.98 1.98 1.87 1.81 1.79 1.73 1.69 1.55 1.52 1.53 1.49 1.53 1.51 1.52 1.51 1.50 1.50 1.50 1.41 1.47 1.50 1.59 1.57 1.54 1.59 1.48 1.65 1.61 1.58 1.54 1.62 1.68 1.82 1.95 2.04 1.99 1.92 1.92 2.00 2.01 2.00 2.03 2.03 2.08 2.10 2.12 2.11 2.16 2.19 2.14 2.10 2.09 2.06 2.05 2.02 1.96 1.89 1.84 1.78 1.78 1.79 1.90 1.82 1.70 1.55 1.54 1.59 1.61 1.58 1.60 1.58 1.48 1.44 1.47 1.47 1.47 1.44
1.54 1.53 1.50 1.51 1.58 1.69 1.78 1.81 1.95 2.03 1.89 1.79 1.77 1.69 1.69 1.56 1.55 1.59 1.57 1.55 1.55 1.53 1.55 1.53 1.54 1.53 1.50 1.52 1.54 1.57 1.57 1.59 1.54 1.54 1.60 1.48 1.45 1.56 1.57 1.65 1.78 1.91 1.91 1.96 1.88 1.95 1.97 1.95 2.02 2.11 2.16 2.14 2.11 2.14 2.18 2.16 2.16 2.14 2.09 2.08 2.08 2.06 2.03 2.00 1.92 1.86 1.82 1.78 1.78 1.82 1.79 1.70 1.61 1.56 1.60 1.63 1.62 1.64 1.69 1.63 1.53 1.49 1.53 1.54 1.50
1.58 1.57 1.51 1.55 1.59 1.64 1.75 1.85 1.96 2.06 1.90 1.73 1.72 1.63 1.64 1.56 1.57 1.65 1.63 1.55 1.57 1.56 1.57 1.57 1.56 1.58 1.52 1.57 1.56 1.60 1.54 1.52 1.51 1.39 1.39 1.57 1.62 1.62 1.63 1.71 1.85 1.89 1.81 1.99 2.05 2.05 2.02 2.07 2.10 2.10 2.18 2.25 2.22 2.13 2.13 2.14 2.11 2.15 2.13 2.04 2.03 2.04 2.00 1.99 1.95 1.92 1.87 1.84 1.81 1.80 1.74 1.67 1.63 1.59 1.61 1.65 1.68 1.68 1.70 1.72 1.69 1.60 1.59 1.58 1.54
1.69 1.67 1.61 1.53 1.61 1.70 1.71 1.74 1.85 1.95 1.82 1.72 1.66 1.56 1.59 1.58 1.60 1.66 1.71 1.66 1.57 1.59 1.58 1.57 1.57 1.55 1.52 1.52 1.57 1.64 1.51 1.53 1.57 1.57 1.57 1.54 1.49 1.58 1.67 1.78 1.84 1.91 1.84 1.93 2.08 2.04 2.14 2.12 2.21 2.20 2.22 2.20 2.22 2.14 2.09 2.09 2.04 2.07 2.06 2.04 2.03 2.02 1.99 1.98 1.99 1.96 1.93 1.91 1.82 1.78 1.74 1.67 1.66 1.64 1.60 1.66 1.69 1.73 1.74 1.77 1.77 1.74 1.66 1.63 1.62
1.79 1.65 1.63 1.63 1.61 1.74 1.79 1.76 1.76 1.83 1.76 1.72 1.65 1.57 1.59 1.56 1.66 1.67 1.68 1.71 1.65 1.59 1.60 1.60 1.57 1.53 1.52 1.51 1.53 1.57 1.48 1.48 1.54 1.52 1.50 1.52 1.49 1.57 1.60 1.76 1.86 1.89 1.93 1.88 1.96 2.05 2.13 2.19 2.12 2.23 2.27 2.22 2.17 2.13 2.14 2.14 2.05 2.02 2.05 2.03 2.06 2.02 1.97 1.96 1.98 1.96 1.94 1.93 1.90 1.80 1.76 1.71 1.69 1.67 1.64 1.65 1.70 1.73 1.78 1.80 1.79 1.82 1.80 1.70 1.65
1.79 1.70 1.73 1.71 1.69 1.70 1.79 1.87 1.79 1.82 1.78 1.74 1.74 1.64 1.53 1.57 1.66 1.71 1.67 1.63 1.64 1.57 1.53 1.57 1.60 1.62 1.54 1.54 1.47 1.45 1.48 1.49 1.55 1.57 1.49 1.45 1.50 1.57 1.59 1.67 1.79 1.86 1.91 1.87 1.88 2.00 2.08 2.11 2.12 2.18 2.22 2.22 2.12 2.11 2.14 2.15 2.14 2.09 2.09 2.06 2.07 2.03 1.99 1.97 1.98 1.97 1.95 1.94 1.91 1.82 1.77 1.75 1.71 1.68 1.66 1.63 1.69 1.72 1.75 1.79 1.81 1.80 1.81 1.75 1.64
1.87 1.79 1.76 1.75 1.71 1.70 1.75 1.80 1.85 1.82 1.82 1.77 1.73 1.67 1.60 1.54 1.59 1.64 1.60 1.62 1.59 1.53 1.52 1.55 1.59 1.63 1.58 1.56 1.51 1.47 1.47 1.48 1.49 1.51 1.50 1.51 1.51 1.52 1.57 1.66 1.81 1.88 1.91 1.87 1.86 1.94 2.05 2.06 2.04 2.11 2.11 2.09 2.14 2.08 2.17 2.15 2.14 2.10 2.08 2.04 2.09 2.04 1.95 1.95 2.00 2.00 1.97 1.95 1.92 1.82 1.77 1.77 1.72 1.68 1.66 1.64 1.65 1.69 1.73 1.75 1.78 1.79 1.77 1.76 1.71
1.84 1.85 1.82 1.77 1.77 1.75 1.81 1.81 1.82 1.85 1.84 1.81 1.67 1.66 1.63 1.56 1.54 1.54 1.53 1.55 1.48 1.49 1.53 1.58 1.58 1.60 1.66 1.55 1.54 1.44 1.43 1.42 1.46 1.49 1.54 1.50 1.48 1.41 1.44 1.50 1.73 1.88 1.88 1.86 1.87 1.92 1.96 2.05 2.02 2.02 2.05 2.06 2.15 2.09 2.14 2.13 2.08 2.10 2.12 2.12 2.10 2.03 2.01 2.00 1.99 1.99 1.96 1.94 1.92 1.91 1.79 1.78 1.76 1.71 1.67 1.66 1.65 1.70 1.73 1.74 1.77 1.77 1.76 1.73 1.73
1.90 1.94 1.94 1.90 1.88 1.86 1.82 1.83 1.81 1.84 1.83 1.80 1.75 1.68 1.63 1.56 1.50 1.48 1.52 1.57 1.45 1.50 1.56 1.53 1.52 1.54 1.61 1.67 1.59 1.53 1.48 1.45 1.46 1.49 1.47 1.49 1.47 1.42 1.38 1.40 1.61 1.86 1.86 1.82 1.86 1.92 1.91 1.97 2.03 2.01 2.06 2.09 2.10 2.14 2.12 2.10 2.07 2.03 2.07 2.07 2.12 2.06 2.06 2.02 1.98 1.95 1.96 1.96 1.95 1.97 1.88 1.81 1.78 1.75 1.71 1.68 1.67 1.69 1.71 1.72 1.74 1.76 1.76 1.73 1.75
2.03 1.98 2.00 2.02 2.03 1.99 1.89 1.86 1.83 1.85 1.87 1.80 1.78 1.71 1.68 1.61 1.59 1.53 1.52 1.51 1.52 1.52 1.50 1.44 1.50 1.55 1.58 1.72 1.70 1.61 1.51 1.50 1.48 1.52 1.51 1.49 1.47 1.45 1.39 1.39 1.51 1.86 1.87 1.82 1.87 1.90 1.91 1.93 2.03 2.10 2.01 2.04 2.08 2.16 2.14 2.05 2.09 2.07 1.98 2.05 2.07 2.09 2.05 2.03 2.02 1.98 1.98 1.98 1.96 1.95 1.93 1.83 1.81 1.78 1.75 1.70 1.67 1.67 1.69 1.71 1.74 1.75 1.76 1.75 1.76
2.11 2.06 2.07 2.08 2.07 2.04 2.02 2.05 2.05 2.06 2.01 1.92 1.88 1.80 1.75 1.70 1.68 1.67 1.64 1.63 1.67 1.66 1.65 1.63 1.59 1.56 1.69 1.74 1.75 1.63 1.61 1.53 1.54 1.57 1.52 1.51 1.49 1.46 1.42 1.40 1.45 1.80 1.87 1.83 1.83 1.89 1.89 1.93 2.03 2.13 2.15 2.10 2.10 2.16 2.13 2.08 2.09 2.07 2.04 2.03 2.05 2.06 2.08 2.06 2.04 2.00 1.97 1.96 1.96 1.96 1.96 1.91 1.81 1.80 1.78 1.75 1.69 1.68 1.69 1.69 1.69 1.74 1.75 1.76 1.78
2.17 2.20 2.20 2.10 2.06 2.10 2.09 2.13 2.16 2.16 2.13 2.09 2.07 2.06 2.02 1.96 1.87 1.85 1.85 1.89 1.92 1.96 1.91 1.90 1.86 1.84 1.80 1.77 1.79 1.79 1.72 1.64 1.64 1.67 1.62 1.58 1.53 1.48 1.44 1.42 1.45 1.71 1.89 1.83 1.82 1.83 1.89 1.91 1.93 2.06 2.08 2.07 2.08 2.05 2.10 2.12 2.08 2.06 2.05 2.06 2.05 2.04 2.06 2.05 2.04 2.03 1.99 1.98 1.95 1.94 1.92 1.96 1.92 1.84 1.81 1.79 1.76 1.73 1.71 1.68 1.62 1.67 1.74 1.72 1.75
2.14 2.20 2.24 2.17 2.21 2.20 2.20 2.18 2.13 2.10 2.14 2.22 2.26 2.15 2.13 2.14 2.13 2.10 2.12 2.10 2.11 2.10 2.08 2.06 2.01 1.99 1.98 2.01 1.98 1.96 1.93 1.92 1.85 1.83 1.83 1.73 1.67 1.58 1.50 1.44 1.50 1.63 1.85 1.81 1.76 1.79 1.80 1.88 1.81 1.89 1.93 1.99 2.03 2.02 2.06 1.99 2.01 1.94 1.99 2.07 2.06 2.05 2.03 2.02 2.04 2.02 1.99 1.97 1.96 1.94 1.92 1.93 1.93 1.93 1.86 1.80 1.79 1.77 1.73 1.70 1.62 1.61 1.71 1.75 1.74
2.11 2.14 2.14 2.18 2.23 2.19 2.17 2.12 2.15 2.13 2.12 2.10 2.16 2.24 2.27 2.25 2.23 2.18 2.19 2.21 2.19 2.17 2.16 2.14 2.12 2.07 2.04 2.04 2.06 2.03 2.01 1.99 1.99 1.93 1.87 1.84 1.72 1.64 1.56 1.52 1.56 1.75 1.80 1.80 1.74 1.76 1.76 1.77 1.80 1.77 1.92 2.03 2.01 1.98 1.99 1.97 2.00 1.95 1.91 2.04 2.01 2.02 2.02 1.99 2.03 2.01 2.00 1.98 1.96 1.94 1.96 1.94 1.93 1.91 1.89 1.88 1.82 1.78 1.75 1.72 1.70 1.66 1.68 1.72 1.73
2.07 2.09 2.10 2.12 2.11 2.20 2.24 2.17 2.18 2.20 2.18 2.14 2.16 2.24 2.26 2.22 2.24 2.28 2.23 2.24 2.20 2.16 2.16 2.16 2.13 2.14 2.11 2.06 2.10 2.09 2.06 2.05 2.04 2.02 1.92 1.88 1.79 1.69 1.63 1.59 1.58 1.67 1.75 1.76 1.74 1.67 1.74 1.69 1.79 1.72 1.77 1.92 1.89 1.93 2.00 1.99 1.99 1.96 1.93 2.00 2.02 1.99 1.99 1.98 1.99 2.00 1.99 2.01 1.97 1.95 1.95 1.93 1.90 1.88 1.88 1.89 1.89 1.83 1.76 1.73 1.72 1.71 1.69 1.67 1.69
2.03 2.06 2.05 2.08 2.09 2.14 2.21 2.22 2.21 2.24 2.23 2.22 2.23 2.26 2.27 2.24 2.22 2.23 2.25 2.24 2.24 2.16 2.15 2.13 2.14 2.13 2.12 2.09 2.12 2.12 2.10 2.10 2.10 2.06 1.97 1.92 1.84 1.73 1.68 1.61 1.58 1.65 1.71 1.75 1.74 1.72 1.71 1.69 1.75 1.70 1.71 1.74 1.81 1.88 1.94 1.94 1.95 1.95 2.00 1.92 1.99 1.96 1.95 1.99 1.97 2.00 2.01 1.96 1.93 1.93 1.92 1.90 1.90 1.89 1.89 1.87 1.90 1.92 1.86 1.77 1.75 1.74 1.72 1.68 1.66
2.06 2.03 2.03 2.03 2.06 2.12 2.15 2.19 2.22 2.26 2.28 2.28 2.31 2.32 2.30 2.29 2.28 2.26 2.21 2.17 2.18 2.13 2.07 2.14 2.13 2.13 2.10 2.09 2.11 2.13 2.12 2.11 2.11 2.09 2.02 1.97 1.92 1.83 1.80 1.78 1.78 1.83 1.80 1.76 1.73 1.73 1.74 1.70 1.65 1.72 1.72 1.68 1.74 1.79 1.78 1.82 1.88 1.84 1.92 1.88 1.94 2.04 1.96 1.95 1.97 1.97 1.96 1.92 1.91 1.91 1.92 1.93 1.91 1.89 1.89 1.88 1.87 1.91 1.94 1.85 1.79 1.77 1.77 1.74 1.68
2.07 2.09 2.08 2.06 2.11 2.16 2.20 2.20 2.19 2.20 2.22 2.26 2.25 2.21 2.20 2.22 2.28 2.22 2.16 2.20 2.20 2.20 2.19 2.12 2.09 2.09 2.07 2.09 2.14 2.14 2.12 2.12 2.10 2.11 2.03 1.99 1.93 1.88 1.83 1.83 1.83 1.82 1.79 1.75 1.71 1.69 1.68 1.72 1.67 1.67 1.73 1.68 1.70 1.77 1.75 1.71 1.79 1.84 1.77 1.80 1.89 2.04 1.99 1.99 1.98 1.94 1.96 1.94 1.93 1.93 1.97 1.92 1.91 1.91 1.91 1.90 1.89 1.87 1.91 1.93 1.84 1.79 1.79 1.77 1.75
2.00 2.07 2.10 2.08 2.05 2.05 2.08 2.10 2.12 2.16 2.21 2.20 2.22 2.20 2.21 2.18 2.15 2.18 2.17 2.16 2.20 2.20 2.23 2.18 2.18 2.13 2.07 2.09 2.09 2.13 2.14 2.13 2.12 2.10 2.08 2.02 1.95 1.91 1.88 1.89 1.89 1.86 1.80 1.73 1.70 1.69 1.65 1.64 1.63 1.61 1.65 1.70 1.74 1.75 1.85 1.84 1.89 1.89 1.98 1.94 2.06 1.94 1.91 1.99 1.92 1.93 1.95 1.94 1.94 1.95 1.93 1.97 1.96 1.93 1.90 1.92 1.92 1.89 1.86 1.88 1.91 1.84 1.82 1.80 1.74
1.92 1.97 2.00 2.03 2.03 2.03 2.03 2.00 2.08 2.13 2.11 2.09 2.09 2.06 2.00 2.03 2.10 2.11 2.07 2.16 2.17 2.17 2.24 2.24 2.24 2.21 2.15 2.12 2.18 2.13 2.14 2.16 2.14 2.12 2.08 2.06 1.99 1.95 1.90 1.89 1.90 1.88 1.84 1.77 1.75 1.73 1.74 1.72 1.69 1.68 1.62 1.53 1.59 1.74 1.83 1.75 1.67 1.69 1.83 1.77 1.74 1.90 1.89 1.87 1.90 1.91 1.92 1.95 1.98 1.93 1.95 1.94 1.95 1.95 1.94 1.93 1.92 1.92 1.89 1.87 1.85 1.87 1.86 1.88 1.85
1.76 1.79 1.83 1.92 1.98 2.01 2.00 2.04 2.08 2.10 2.14 2.16 2.13 2.12 2.10 2.08 2.08 2.09 2.15 2.17 2.17 2.17 2.18 2.24 2.22 2.22 2.18 2.15 2.12 2.26 2.10 2.16 2.18 2.15 2.10 2.06 2.03 1.98 1.93 1.90 1.90 1.88 1.87 1.85 1.79 1.77 1.71 1.63 1.61 1.56 1.60 1.50 1.49 1.61 1.73 1.71 1.57 1.61 1.51 1.59 1.64 1.91 1.88 1.93 1.88 1.88 1.91 1.95 1.94 1.93 1.95 1.92 1.92 1.94 1.98 1.95 1.92 1.91 1.88 1.88 1.88 1.83 1.83 1.84 1.91
1.73 1.72 1.75 1.78 1.85 1.92 1.97 2.00 2.04 2.08 2.16 2.20 2.13 2.02 2.14 2.16 2.14 2.12 2.11 2.12 2.25 2.29 2.24 2.30 2.33 2.21 2.23 2.18 2.15 2.17 2.14 2.15 2.17 2.17 2.11 2.07 2.06 2.00 1.96 1.94 1.90 1.91 1.87 1.82 1.75 1.67 1.65 1.57 1.55 1.47 1.49 1.56 1.52 1.60 1.62 1.62 1.49 1.63 1.59 1.42 1.51 1.50 1.73 1.78 1.95 1.94 1.89 1.91 1.94 1.92 1.94 1.93 1.92 1.96 1.97 1.95 1.93 1.90 1.88 1.88 1.88 1.87 1.86 1.83 1.83
1.70 1.73 1.71 1.71 1.74 1.79 1.84 1.91 1.97 2.02 2.04 2.08 2.06 2.12 2.13 2.17 2.19 2.15 2.15 2.13 2.11 2.22 2.25 2.27 2.24 2.19 2.15 2.19 2.21 2.16 2.19 2.13 2.13 2.08 2.13 2.04 2.07 2.03 2.00 1.94 1.91 1.91 1.88 1.82 1.76 1.67 1.64 1.57 1.52 1.49 1.47 1.40 1.49 1.51 1.62 1.62 1.51 1.53 1.36 1.48 1.50 1.45 1.36 1.59 1.68 1.86 1.92 1.89 1.90 1.89 1.92 1.88 1.91 1.94 1.95 1.90 1.92 1.95 1.93 1.89 1.85 1.85 1.86 1.85 1.85
1.59 1.64 1.66 1.70 1.74 1.76 1.78 1.83 1.87 1.91 1.97 2.00 2.01 2.04 2.06 2.04 2.06 2.06 2.08 2.04 2.06 2.03 2.02 2.02 2.08 2.10 2.10 2.13 2.16 2.19 2.19 2.16 2.11 2.09 2.13 2.06 2.08 2.06 2.01 1.95 1.90 1.89 1.87 1.83 1.76 1.67 1.65 1.60 1.54 1.46 1.43 1.39 1.35 1.44 1.60 1.62 1.55 1.57 1.46 1.36 1.40 1.37 1.42 1.56 1.44 1.75 1.81 1.87 1.88 1.89 1.90 1.86 1.88 1.90 1.88 1.90 1.94 1.95 1.95 1.92 1.90 1.89 1.87 1.87 1.86
1.55 1.61 1.68 1.71 1.72 1.74 1.77 1.78 1.82 1.86 1.89 1.93 1.94 1.94 1.93 1.91 1.89 1.86 1.82 1.83 1.81 1.85 1.82 1.85 1.94 1.97 2.03 2.18 2.22 2.21 2.15 2.12 2.07 2.10 2.18 2.09 2.08 2.08 2.03 1.96 1.89 1.87 1.85 1.83 1.81 1.74 1.65 1.57 1.55 1.49 1.42 1.44 1.39 1.41 1.44 1.62 1.57 1.61 1.62 1.55 1.51 1.42 1.42 1.53 1.35 1.36 1.71 1.88 1.87 1.89 1.84 1.86 1.88 1.85 1.86 1.88 1.88 1.91 1.94 1.91 1.93 1.89 1.89 1.88 1.87
1.53 1.60 1.66 1.69 1.71 1.73 1.75 1.77 1.79 1.82 1.85 1.87 1.90 1.89 1.83 1.86 1.85 1.81 1.83 1.83 1.80 1.85 1.97 2.03 2.03 2.08 2.13 2.12 2.17 2.19 2.14 2.10 2.09 2.06 2.14 2.10 2.12 2.08 2.04 1.97 1.92 1.86 1.86 1.83 1.77 1.70 1.69 1.63 1.58 1.51 1.45 1.45 1.44 1.30 1.34 1.44 1.60 1.59 1.59 1.59 1.60 1.64 1.67 1.53 1.43 1.46 1.40 1.63 1.75 1.86 1.87 1.87 1.88 1.86 1.84 1.86 1.88 1.85 1.89 1.90 1.90 1.91 1.89 1.89 1.88
1.57 1.63 1.63 1.65 1.64 1.64 1.65 1.68 1.75 1.79 1.83 1.85 1.86 1.90 1.83 1.79 1.77 1.77 1.77 1.75 1.78 1.85 2.00 2.08 2.12 2.11 2.07 2.08 2.13 2.15 2.16 2.19 2.15 2.03 2.12 2.12 2.14 2.08 2.06 1.98 1.88 1.86 1.86 1.81 1.77 1.73 1.68 1.65 1.62 1.57 1.53 1.45 1.43 1.38 1.35 1.36 1.35 1.50 1.60 1.57 1.59 1.61 1.63 1.63 1.60 1.44 1.37 1.33 1.51 1.79 1.84 1.88 1.85 1.84 1.85 1.84 1.84 1.83 1.83 1.87 1.90 1.90 1.92 1.92 1.90
1.42 1.45 1.49 1.54 1.59 1.62 1.62 1.65 1.66 1.72 1.76 1.80 1.81 1.85 1.86 1.83 1.79 1.76 1.72 1.79 1.81 1.83 1.88 1.95 2.04 2.05 2.08 2.10 2.12 2.15 2.16 2.18 2.22 2.15 2.12 2.11 2.11 2.06 2.05 1.97 1.89 1.84 1.84 1.80 1.76 1.73 1.67 1.61 1.59 1.58 1.53 1.49 1.43 1.43 1.38 1.34 1.36 1.38 1.49 1.52 1.54 1.59 1.66 1.68 1.64 1.62 1.44 1.40 1.44 1.48 1.63 1.86 1.85 1.87 1.85 1.86 1.85 1.85 1.85 1.87 1.90 1.89 1.91 1.90 1.92
1.27 1.31 1.33 1.35 1.38 1.44 1.45 1.49 1.52 1.58 1.63 1.68 1.72 1.74 1.78 1.80 1.76 1.75 1.70 1.70 1.76 1.80 1.82 1.80 1.86 1.92 1.92 1.99 2.06 2.09 2.13 2.14 2.26 2.25 2.16 2.12 2.10 2.11 2.05 1.96 1.90 1.84 1.79 1.89 1.78 1.70 1.67 1.62 1.61 1.61 1.61 1.50 1.46 1.41 1.37 1.36 1.34 1.40 1.46 1.50 1.50 1.55 1.55 1.56 1.59 1.58 1.56 1.52 1.37 1.41 1.51 1.54 1.51 1.73 1.86 1.84 1.85 1.86 1.87 1.88 1.88 1.88 1.89 1.89 1.91
1.13 1.17 1.18 1.21 1.28 1.30 1.34 1.32 1.36 1.43 1.51 1.56 1.61 1.65 1.71 1.76 1.74 1.74 1.72 1.69 1.71 1.72 1.72 1.76 1.82 1.83 1.81 1.87 1.93 2.01 2.08 2.09 2.17 2.19 2.22 2.13 2.11 2.11 2.08 2.01 1.95 1.90 1.84 1.85 1.74 1.68 1.66 1.62 1.63 1.64 1.61 1.54 1.45 1.40 1.38 1.39 1.37 1.37 1.42 1.47 1.48 1.49 1.50 1.47 1.51 1.56 1.54 1.48 1.47 1.47 1.50 1.58 1.58 1.53 1.69 1.84 1.88 1.90 1.90 1.88 1.85 1.85 1.88 1.90 1.91
Wind_Speed
12 11 12 12 11 11 11 11 10 10 10 10 11 11 12 11 12 12 11 12 12 12 12 11 11 11 11 10 10 9 9 9 8 8 8 7 7 7 7 7 7 6 6 6 6 6 6 6 6 5 5 4 4 4 4 4 4 4 4 5 6 7 7 7 7 8 9 9 10 10 9 9 9 11 12 12 12 13 13 13 14 15 15 15 14
13 12 12 12 11 11 11 11 10 10 10 11 11 12 12 12 12 12 11 11 11 12 11 11 11 11 10 10 9 9 9 9 8 8 7 7 7 7 7 7 7 6 6 6 6 6 6 7 6 6 5 4 4 4 4 3 3 4 4 5 6 7 7 7 7 8 10 10 10 10 10 10 10 10 12 13 13 13 13 13 14 14 14 15 14
13 12 12 12 11 11 11 11 11 11 11 11 11 12 12 12 12 12 11 11 12 12 11 11 11 10 10 9 9 8 8 8 8 7 7 7 7 7 7 7 6 6 6 6 5 6 6 7 6 5 5 4 4 4 4 3 3 3 4 5 5 6 6 7 7 9 10 10 11 11 11 11 11 11 12 13 14 14 15 14 14 14 14 14 14
13 12 12 12 11 11 11 11 11 11 11 11 12 12 12 12 12 12 12 12 12 12 11 11 11 10 9 8 8 8 8 8 7 7 7 7 8 7 7 7 6 6 6 5 5 5 6 6 6 6 5 4 4 4 4 3 3 3 3 4 5 6 6 7 9 10 10 10 11 11 11 11 11 11 11 12 14 15 15 15 14 14 14 14 14
13 12 12 12 12 11 12 11 11 11 11 12 12 12 12 12 12 12 12 12 12 11 11 11 10 9 9 8 7 7 7 7 7 7 7 7 7 7 7 7 6 6 5 5 5 5 6 6 6 6 5 4 4 3 3 3 3 3 4 4 5 6 7 8 10 10 10 11 11 12 11 11 12 11 11 12 13 14 15 15 15 14 14 14 14
13 12 12 12 12 12 12 12 11 11 11 12 12 12 12 12 12 12 12 12 11 11 11 10 10 9 8 8 7 7 7 6 6 6 6 7 7 7 7 6 6 6 5 5 5 5 6 7 6 6 5 4 3 2 2 3 3 3 3 4 4 5 6 7 8 9 10 11 12 12 11 11 12 12 12 12 12 13 14 14 14 13 14 14 14
13 13 12 12 12 12 12 12 11 11 11 12 12 12 12 12 12 12 11 11 11 10 10 10 9 8 8 8 7 7 7 6 6 6 6 6 6 6 6 6 6 5 5 5 4 5 6 7 6 5 5 4 3 2 2 2 3 3 3 3 4 5 6 6 7 8 9 11 12 12 11 11 12 12 12 12 13 13 13 13 13 13 13 14 14
13 13 12 11 12 12 12 12 11 11 11 12 12 12 11 11 11 11 11 11 10 10 9 9 8 8 8 8 7 7 7 6 6 5 5 6 6 6 6 6 5 5 4 4 4 6 6 6 5 5 4 4 3 2 1 2 2 2 3 3 4 5 5 6 6 7 8 9 10 10 10 11 11 12 12 12 13 12 12 12 12 12 13 13 13
13 12 12 12 12 12 12 12 11 11 11 11 11 11 11 11 11 11 11 10 10 9 8 8 8 7 7 7 7 7 7 6 6 6 6 5 5 5 5 5 5 5 4 4 4 6 6 5 5 5 4 4 3 2 1 1 2 2 3 3 4 5 6 6 6 7 7 7 9 10 10 11 12 12 12 12 12 11 11 11 11 11 12 13 13
12 13 12 12 12 13 12 12 11 11 11 11 11 11 11 10 10 11 11 10 9 9 8 8 7 7 7 7 7 7 6 6 6 6 6 5 5 5 5 5 5 5 4 4 5 6 6 5 5 5 4 4 3 2 1 1 1 2 2 3 4 5 6 6 7 7 6 7 8 10 10 11 13 13 12 11 11 10 10 10 10 11 12 12 12
12 13 12 12 13 13 12 12 11 11 10 11 11 10 10 10 10 10 10 10 9 8 8 7 7 6 6 6 6 6 6 6 6 5 5 5 5 5 5 5 5 5 5 5 5 6 5 5 5 5 5 4 3 2 1 1 1 2 2 3 4 5 6 7 8 8 7 8 8 10 10 11 13 13 11 10 9 9 10 10 10 11 12 12 12
12 12 12 12 13 13 12 12 11 11 10 10 10 10 9 9 9 9 9 9 8 7 7 7 6 6 5 5 5 5 5 5 5 5 5 5 5 5 5 5 5 5 5 5 5 5 5 5 5 5 5 5 3 2 1 0 1 2 2 3 5 5 6 7 8 9 8 9 9 10 10 10 12 12 10 9 8 8 9 9 9 10 11 12 12
12 12 12 12 13 13 13 12 11 11 10 10 10 10 9 9 9 9 9 8 7 7 6 6 6 5 5 4 4 4 4 4 4 4 4 4 5 5 5 5 5 5 5 5 5 5 5 5 5 5 5 5 3 2 2 0 1 2 3 4 5 5 7 8 8 9 9 10 11 10 10 10 10 10 9 8 8 8 8 8 9 11 11 12 12
12 11 12 12 13 13 13 12 11 11 10 10 10 9 9 9 8 8 8 7 7 6 6 6 5 5 4 4 3 3 3 3 4 4 4 4 5 5 5 5 5 5 5 5 4 4 5 5 5 6 5 5 4 3 2 1 1 2 3 4 5 6 7 8 9 10 10 10 11 10 10 11 10 9 8 8 8 8 8 9 10 11 12 12 11
12 12 12 12 13 13 13 12 11 11 10 10 10 9 9 8 8 8 8 7 7 6 5 5 5 4 3 3 2 2 2 2 3 3 3 4 4 5 5 5 5 5 5 5 4 4 5 6 6 6 6 5 4 3 3 2 1 2 3 4 5 6 8 9 9 10 10 10 10 10 10 10 10 9 8 9 9 9 9 10 10 11 12 12 12
12 12 12 12 12 13 13 12 11 11 10 10 10 9 8 8 8 8 7 7 7 6 5 5 4 4 3 2 2 1 2 2 2 2 3 3 4 4 5 5 5 5 5 4 4 4 4 5 6 6 5 4 4 3 3 2 1 1 3 4 5 7 8 9 9 10 10 10 10 9 9 9 10 9 9 9 9 9 10 10 11 12 12 12 12
12 13 12 12 12 12 13 12 12 11 10 10 9 9 8 8 8 7 7 7 7 6 6 5 4 4 3 2 2 1 1 1 1 1 2 3 3 4 5 5 5 5 4 4 4 4 4 5 6 6 5 4 4 4 4 3 1 1 3 4 6 7 9 10 10 10 10 10 10 10 9 9 10 10 10 10 10 10 10 10 11 11 12 12 12
12 13 13 12 12 12 12 12 12 11 10 10 9 9 8 8 7 7 7 7 7 6 6 5 5 4 4 3 2 1 1 1 1 1 1 2 3 4 5 5 5 5 5 4 4 4 5 6 6 6 5 4 4 4 4 3 1 1 3 4 5 7 9 11 10 10 10 11 11 10 10 10 10 10 10 10 10 10 11 11 11 11 11 12 11
12 13 13 12 12 12 12 12 12 11 11 10 10 9 9 8 8 7 7 7 6 6 6 5 5 5 4 3 3 2 2 1 1 0 1 2 3 4 4 5 5 5 5 4 4 4 5 6 6 5 5 5 5 4 4 3 2 1 3 4 5 7 9 10 11 10 10 11 11 10 10 10 11 11 11 11 10 11 11 11 11 11 11 11 10
12 13 13 13 12 12 12 12 12 12 11 10 10 10 9 9 8 7 7 7 7 7 6 6 5 5 5 4 3 3 2 2 1 1 2 3 3 4 4 5 5 5 5 5 4 4 5 5 5 5 5 6 5 4 4 3 1 0 3 5 6 7 9 10 11 11 11 10 10 10 11 11 11 11 11 11 11 11 11 11 11 11 11 10 10
12 12 13 13 13 12 12 12 12 12 12 11 10 10 10 9 9 8 7 7 7 7 7 6 6 6 5 5 4 4 3 3 3 2 2 3 4 4 5 5 6 5 4 5 5 5 5 5 5 5 6 6 6 5 3 2 1 1 3 4 6 7 9 10 11 11 11 10 10 10 11 11 12 12 12 11 11 11 11 11 11 11 11 10 10
12 12 13 13 13 13 13 13 12 13 12 12 11 11 11 10 9 8 8 8 8 7 7 7 6 6 6 6 5 5 4 4 4 3 3 3 4 5 5 5 6 6 5 4 4 4 4 5 5 5 6 6 7 6 4 1 1 2 3 4 6 7 8 9 10 11 11 11 11 11 11 12 12 12 12 12 11 11 11 11 11 11 10 10 10
12 12 13 13 13 13 13 13 13 13 13 12 12 11 11 11 10 9 9 8 8 8 7 7 7 6 6 6 6 5 5 5 4 4 4 4 5 5 5 6 6 6 5 4 3 4 4 4 5 5 6 7 7 7 5 3 1 2 3 4 5 7 8 9 10 11 11 11 11 11 11 12 12 12 12 12 12 12 12 11 11 11 11 10 10
13 12 12 13 14 13 13 13 13 13 13 13 12 11 11 11 11 10 9 9 9 8 8 7 7 7 7 7 6 6 6 5 5 5 5 5 5 5 5 6 6 6 6 5 4 3 3 3 4 5 7 8 8 7 6 4 2 2 3 4 5 6 7 9 10 10 10 10 11 11 11 12 12 13 13 13 12 12 12 12 12 11 11 11 10
12 12 12 13 14 13 13 14 13 13 13 13 12 12 12 12 11 11 10 9 9 8 8 8 8 8 8 7 7 7 7 6 6 6 6 5 5 5 5 6 6 6 6 6 5 5 4 4 4 6 8 8 8 7 6 5 3 3 3 4 5 6 7 8 9 10 10 10 11 11 12 12 13 13 13 13 13 13 13 13 13 12 12 11 11
13 13 13 13 14 14 13 14 14 13 13 13 12 12 12 12 12 11 11 10 9 9 9 9 9 9 8 8 8 8 8 7 7 6 6 6 5 5 5 6 6 6 6 6 6 6 6 5 6 8 9 8 7 7 6 5 4 3 3 4 5 6 7 8 9 9 10 10 10 11 12 12 13 13 13 13 13 13 13 13 13 13 12 12 11
13 13 13 13 14 14 14 14 14 14 14 14 13 12 13 13 12 12 11 10 10 10 10 9 9 9 9 9 9 9 8 8 7 7 7 6 6 5 6 6 5 5 5 5 5 6 6 6 7 8 9 8 7 7 7 5 4 3 3 4 5 6 6 7 8 9 10 10 10 11 12 12 13 13 13 13 13 13 14 14 13 13 13 12 12
13 13 14 14 14 15 15 15 14 15 15 15 14 13 13 13 13 12 12 11 11 10 10 10 10 10 10 9 9 9 9 8 8 8 7 6 6 6 6 6 5 5 5 5 5 5 5 6 7 8 9 7 7 7 6 5 5 3 3 4 5 6 6 7 7 8 9 10 10 11 12 12 13 13 13 13 13 13 14 14 13 13 13 13 13
14 14 14 14 15 15 15 15 15 15 15 15 15 14 14 14 14 13 13 12 12 11 11 11 11 11 11 10 10 10 9 9 9 8 7 7 7 7 6 6 6 5 5 5 4 4 5 6 6 7 8 6 6 6 6 5 5 4 2 3 4 6 6 6 7 7 8 9 10 11 11 12 12 13 13 13 13 13 14 14 14 13 13 13 13
14 14 14 14 14 15 15 16 16 16 16 16 15 15 14 15 15 15 14 14 13 12 12 12 12 11 11 11 11 11 10 10 9 9 8 8 8 7 7 6 6 5 5 5 4 4 5 5 5 6 6 6 6 6 6 5 5 4 3 2 3 5 5 6 6 7 8 9 9 10 11 12 12 13 13 13 13 13 13 14 14 14 13 13 13
15 14 14 14 14 15 15 16 16 16 16 16 16 15 15 15 15 15 15 15 14 13 13 13 12 12 12 12 12 11 11 11 10 9 9 9 8 8 7 7 6 6 5 5 5 4 4 4 5 5 5 6 5 5 5 5 4 3 3 3 3 4 5 5 6 7 8 8 9 9 10 12 12 12 13 14 14 14 13 14 14 14 14 13 13
15 15 15 15 15 15 16 16 16 16 16 16 16 16 16 16 16 16 15 15 15 14 14 13 13 13 13 13 12 12 12 12 12 11 10 10 9 8 8 7 7 6 6 5 5 5 4 4 4 4 5 5 5 5 4 4 4 4 3 3 3 4 4 5 5 6 7 8 8 9 10 11 12 12 13 14 14 14 14 14 14 14 14 14 13
15 15 15 16 16 16 16 16 16 17 17 17 16 16 16 16 16 16 16 16 15 15 15 14 13 13 13 13 13 13 12 13 13 12 12 11 10 9 9 8 8 7 6 6 5 5 4 3 3 3 4 4 4 4 4 4 4 4 3 3 3 4 4 4 5 6 7 7 8 8 9 10 11 12 13 14 14 14 14 14 14 14 14 14 14
14 15 15 16 16 17 16 16 17 17 18 18 17 16 17 17 17 17 16 16 16 15 15 14 14 13 13 13 13 13 13 13 13 13 12 11 11 10 9 9 8 8 7 6 6 5 5 4 4 4 4 3 3 3 3 4 4 4 3 3 3 3 4 4 5 5 6 7 7 8 9 9 10 11 12 13 14 14 15 15 15 15 15 14 14
13 14 15 15 16 16 16 17 17 18 18 19 18 18 18 18 19 18 17 17 16 16 15 15 14 14 13 13 13 13 13 13 13 13 13 12 11 10 10 10 9 8 8 7 6 6 5 5 5 4 3 2 3 3 2 3 4 3 3 3 3 3 4 4 4 5 5 6 7 7 8 9 9 10 11 12 13 14 15 15 15 15 15 15 15
12 13 14 14 15 15 15 16 17 17 18 18 18 19 19 19 19 19 18 17 17 16 15 15 15 14 14 13 13 13 13 13 13 13 13 13 12 11 11 11 10 9 8 8 7 7 6 5 5 5 4 2 2 3 2 2 2 2 2 2 2 3 3 4 4 4 5 6 6 7 7 8 8 9 10 11 12 13 14 15 15 15 15 15 15
9 10 11 12 14 14 14 15 16 16 17 17 18 18 19 19 19 20 19 18 17 16 16 16 15 15 14 14 13 13 13 13 14 14 14 13 13 12 11 11 11 10 9 8 7 7 7 6 5 5 4 3 3 2 2 2 1 1 1 1 1 2 3 4 4 4 5 5 5 6 7 7 8 9 10 10 11 12 13 14 15 15 16 16 16
5 6 8 9 11 12 12 13 14 15 15 16 17 17 18 18 18 19 18 18 18 17 17 16 16 15 15 15 14 13 13 14 14 14 14 14 13 13 12 12 11 10 9 9 8 8 7 7 6 5 5 4 4 3 2 2 1 1 0 1 2 2 3 3 4 4 4 4 5 5 6 7 7 8 9 10 10 11 12 13 14 15 16 16 16
2 3 5 6 7 8 9 10 12 13 13 14 15 15 16 17 17 18 18 18 18 18 18 17 17 16 16 15 15 14 14 14 14 14 14 14 14 13 13 13 12 11 10 10 9 9 8 8 7 6 6 5 5 4 3 3 3 2 1 2 2 3 3 3 3 4 4 4 5 5 5 6 7 7 8 9 10 10 11 12 13 14 15 16 17
1 0 2 3 4 5 6 7 9 10 11 12 13 14 14 15 16 17 18 18 18 18 18 18 18 17 17 17 16 15 14 14 14 14 14 14 14 14 13 13 13 12 12 11 10 10 9 9 8 8 7 6 6 5 4 4 4 3 2 2 2 3 3 3 3 3 4 4 5 5 5 5 6 7 8 8 9 10 11 11 12 13 14 15 16
3 2 1 1 2 3 4 5 6 7 9 10 11 12 13 13 14 16 17 18 18 18 18 18 18 18 18 18 17 16 15 15 14 14 14 14 14 14 14 14 14 13 13 12 11 11 10 9 9 8 8 7 7 6 5 4 4 3 2 2 2 2 2 3 3 3 3 4 4 5 5 5 5 6 7 8 8 9 10 11 11 12 13 13 15
5 4 3 1 1 2 3 4 5 6 7 8 8 9 10 11 12 13 15 16 17 18 18 17 18 18 18 18 18 17 16 15 15 15 15 15 15 15 14 15 14 14 14 13 13 12 12 11 10 9 9 8 8 7 6 5 5 4 3 3 2 2 2 3 3 3 4 4 4 4 5 5 5 6 6 7 7 8 9 10 11 11 12 12 13
6 5 4 3 2 2 2 3 4 5 6 6 6 7 7 8 10 11 12 14 15 16 17 17 17 17 17 18 18 17 16 16 16 16 16 16 15 15 15 15 15 15 14 14 14 13 13 12 12 10 10 9 8 8 7 6 6 4 4 4 3 2 2 3 3 4 4 4 4 4 4 5 6 6 6 6 7 8 8 9 10 11 11 12 12
6 5 5 4 3 3 3 3 4 4 5 5 6 6 6 7 8 9 10 12 13 14 15 16 17 17 18 18 18 17 17 17 17 17 17 16 16 16 16 16 16 16 15 15 15 14 13 13 13 12 11 10 9 8 8 7 7 6 5 5 4 4 3 3 3 3 4 4 4 4 4 5 5 6 6 6 7 7 8 9 10 10 11 12 12
6 6 5 5 4 4 4 4 4 4 5 5 6 6 6 7 7 8 9 10 11 12 14 15 16 16 17 17 17 17 17 17 18 18 17 16 16 16 16 17 17 16 16 16 16 15 14 14 14 13 13 12 11 10 9 8 8 7 6 6 5 5 4 3 3 2 3 4 4 4 4 4 5 6 6 6 7 7 8 8 9 10 11 11 12
6 6 6 5 5 5 5 5 5 5 6 6 6 6 6 7 7 8 8 9 10 11 13 14 15 15 16 16 17 17 18 18 17 17 17 17 16 16 17 17 17 17 17 17 17 16 15 15 15 14 14 13 12 11 10 9 9 8 8 7 7 6 5 5 4 4 4 4 4 5 5 5 5 5 6 6 6 7 7 8 8 9 10 10 11
7 7 6 6 6 6 6 6 6 6 7 7 7 7 7 7 7 8 8 9 10 10 11 12 14 15 15 16 17 17 18 18 17 18 18 17 17 17 17 17 17 18 18 18 18 17 16 16 16 15 15 14 14 13 12 11 10 9 9 9 8 8 8 7 6 5 5 5 5 6 6 6 6 6 6 6 6 7 7 7 8 8 9 9 10
7 7 7 7 7 7 7 7 8 8 8 8 8 8 8 8 8 9 9 9 10 10 11 12 13 14 15 16 17 17 18 18 18 18 19 18 17 17 17 17 18 18 19 19 19 18 18 17 17 16 16 15 15 14 13 12 11 10 10 10 9 9 9 8 8 7 7 6 6 6 6 6 6 7 7 7 7 7 7 7 7 8 8 9 9
7 7 7 7 8 8 8 8 9 9 9 9 10 10 10 10 10 10 10 10 10 11 11 11 12 13 14 15 17 18 18 19 19 19 19 18 17 17 17 18 18 19 19 20 20 19 19 18 18 17 17 17 16 16 14 13 13 12 11 10 10 10 9 9 9 9 8 7 7 7 7 6 7 7 8 7 7 7 7 7 8 8 8 9 9
7 7 8 8 8 9 9 9 9 9 10 10 10 11 11 11 11 11 12 12 12 12 12 12 12 12 13 14 15 17 18 19 19 19 19 19 18 18 18 19 19 19 20 20 20 20 20 19 19 19 18 18 17 17 16 15 14 13 13 12 11 10 10 9 9 9 9 9 8 8 8 7 7 7 7 8 8 8 8 8 8 8 8 9 9
8 8 8 9 9 9 10 10 10 10 10 10 10 11 11 12 12 13 13 13 13 13 13 13 13 13 13 14 14 15 16 17 19 20 20 20 19 19 19 20 20 20 20 20 20 20 20 20 20 20 20 19 19 18 18 17 16 15 14 13 12 12 11 10 10 10 10 9 9 9 9 8 8 8 8 8 8 8 8 8 8 8 8 9 9
Wind_Direction
148 145 144 145 142 140 138 136 133 131 129 126 126 127 128 128 128 126 125 125 123 121 120 120 118 116 112 111 111 109 107 104 103 99 96 90 84 79 77 76 74 73 71 70 69 73 77 77 77 80 89 100 109 113 110 109 113 120 130 128 134 138 133 133 134 136 138 141 143 144 144 144 141 139 140 140 137 136 136 136 137 137 137 139 142
151 148 146 146 143 142 139 137 135 133 131 128 127 128 129 129 129 126 125 124 122 121 120 119 117 114 111 110 108 105 103 102 100 97 92 86 81 78 76 75 73 70 67 65 66 74 77 76 75 76 83 93 105 109 107 108 110 118 131 128 130 134 132 136 138 139 141 141 142 143 142 141 139 137 138 137 135 136 137 137 137 136 137 139 140
151 150 147 147 145 143 141 138 136 135 133 130 128 128 129 129 129 126 125 124 123 123 121 119 115 112 109 108 106 103 101 100 98 92 87 83 80 78 75 73 70 68 65 62 65 70 73 71 67 68 74 83 94 100 100 103 106 115 130 130 131 136 137 139 141 142 142 143 143 142 141 139 138 137 135 133 132 134 136 137 137 136 137 140 141
151 151 149 148 146 144 142 140 137 135 134 131 128 128 129 129 128 126 126 126 125 124 122 119 115 111 108 106 106 105 103 98 93 88 84 82 78 75 72 71 68 66 65 62 62 63 65 63 58 60 67 76 88 99 104 105 103 110 125 134 136 138 139 138 139 140 138 141 143 142 141 140 140 138 136 133 131 132 133 135 136 135 136 139 141
152 152 150 150 148 146 145 141 138 136 135 131 129 128 129 129 127 127 127 127 126 125 124 120 115 111 108 106 107 107 102 93 88 86 83 80 76 73 69 66 64 64 64 62 58 57 58 57 57 58 63 74 85 96 108 107 102 108 119 133 140 141 141 140 140 140 138 140 142 142 140 139 140 138 137 134 131 131 131 132 133 133 136 138 139
153 152 152 152 150 149 147 143 140 138 136 133 131 130 130 129 128 128 128 128 127 126 124 122 117 111 106 105 107 106 99 92 89 88 83 78 73 69 65 61 59 60 60 59 54 52 51 49 54 57 59 69 78 86 102 107 103 109 119 131 141 145 147 146 145 143 142 142 141 141 138 137 140 139 138 135 133 133 131 131 133 135 137 138 139
154 153 154 153 152 153 150 145 143 140 139 135 133 132 131 131 131 131 130 129 128 127 126 124 118 112 105 100 104 104 99 94 92 90 83 76 69 65 61 56 54 54 56 53 48 48 47 44 48 52 56 61 66 80 98 119 118 117 126 137 144 148 152 152 150 146 145 141 137 137 136 137 139 139 138 136 135 134 134 133 134 136 139 140 140
156 155 156 155 155 155 152 148 146 143 141 138 136 135 134 134 134 132 132 131 129 128 127 125 120 113 105 97 99 100 96 94 92 88 81 74 67 62 57 53 50 48 50 47 42 44 43 40 41 43 46 47 53 74 88 131 141 137 140 145 150 155 158 158 157 153 152 144 138 136 136 139 141 139 139 138 137 136 136 135 136 139 142 143 143
160 159 158 157 157 158 155 151 149 147 144 141 139 138 138 137 136 135 134 133 131 130 128 124 121 115 107 99 97 96 92 89 87 82 76 71 65 60 54 50 46 43 43 40 37 40 39 32 31 32 32 35 42 61 71 130 159 161 158 158 159 163 164 166 166 164 162 152 145 141 137 141 144 140 138 139 139 140 140 139 140 142 145 147 146
164 162 160 159 159 160 158 155 152 150 148 144 142 141 141 140 138 137 137 137 137 134 127 123 121 117 109 102 98 93 87 84 82 76 72 69 63 57 52 47 41 38 37 36 35 35 33 26 23 24 25 30 35 44 59 121 176 180 176 174 171 171 171 171 172 170 168 157 150 146 141 143 146 141 139 142 141 142 145 144 145 146 149 150 150
166 164 162 162 162 163 161 159 156 154 152 148 146 144 143 142 141 140 141 142 142 137 129 124 123 119 110 102 99 94 87 82 78 75 69 65 62 55 49 45 38 34 34 35 36 30 25 25 23 22 19 17 19 26 46 101 187 196 187 181 180 179 178 176 173 171 170 164 155 149 146 147 150 147 143 146 145 144 146 146 148 150 152 154 153
168 166 165 165 165 166 164 163 160 158 157 153 150 148 146 145 146 145 146 147 145 140 133 130 127 121 111 101 100 98 89 82 76 73 67 62 60 53 45 41 35 31 31 34 36 28 23 28 25 18 10 6 9 11 11 40 199 209 201 188 185 183 181 178 175 173 171 168 162 156 152 151 152 152 148 148 149 148 149 149 151 153 155 156 155
170 170 168 167 168 169 168 166 164 162 161 159 155 153 151 151 151 151 151 151 149 144 140 138 134 127 119 105 100 99 92 84 76 71 66 61 58 52 43 37 33 28 30 34 33 27 23 24 22 15 7 9 15 14 9 332 216 215 213 202 194 187 182 178 175 173 172 171 168 164 158 155 155 155 151 150 152 152 154 154 156 158 158 158 158
173 175 173 171 172 172 171 170 168 166 166 165 162 160 159 157 157 158 157 157 156 154 150 148 145 139 130 115 102 101 98 87 77 71 66 60 55 49 41 35 30 28 32 35 31 27 24 21 20 16 11 13 18 18 11 338 256 219 211 208 198 189 183 179 176 176 176 173 171 169 162 159 161 159 155 155 155 156 158 158 160 161 160 161 162
175 177 176 174 175 175 175 174 172 171 170 171 169 168 166 164 163 164 164 164 166 165 161 157 157 153 141 129 110 104 104 93 78 71 65 58 52 44 37 32 27 29 33 33 29 26 24 20 16 13 11 14 19 15 3 339 279 228 209 207 197 190 186 180 178 180 180 177 175 172 167 164 165 162 159 159 158 158 159 158 161 163 163 163 165
177 177 177 177 178 179 179 178 177 176 176 176 176 175 173 171 169 171 172 174 176 174 172 168 170 168 157 150 132 116 113 110 88 72 63 53 45 37 31 27 23 25 27 26 25 22 19 16 13 9 9 14 17 11 358 346 299 228 206 202 195 192 189 183 180 181 181 181 180 176 172 167 166 165 162 161 161 160 159 158 158 159 162 165 167
181 180 180 180 181 182 183 182 182 181 182 182 183 182 180 178 176 179 182 183 183 183 183 181 184 186 178 172 166 154 136 134 110 77 58 42 33 28 22 19 18 18 16 15 16 11 5 4 6 4 6 12 10 3 358 353 319 228 201 195 191 190 189 187 183 181 182 182 182 180 176 171 170 169 164 162 163 162 160 159 157 155 158 162 165
185 185 185 184 184 185 186 185 187 187 188 189 190 190 187 186 185 186 189 189 189 192 194 194 198 198 196 196 197 198 180 167 141 74 27 20 16 15 13 13 13 8 2 360 359 354 353 355 359 1 5 9 2 357 357 357 341 231 193 186 187 188 187 188 187 184 184 184 184 183 179 175 174 172 168 166 165 164 161 159 158 156 157 159 161
188 188 189 189 189 189 190 189 192 193 193 194 196 197 194 194 193 193 194 195 197 200 203 205 207 207 208 213 220 218 216 220 213 303 338 349 355 0 2 4 2 358 354 349 348 348 351 356 1 5 8 9 1 354 352 355 352 230 181 177 181 185 186 187 187 187 185 185 186 186 181 177 177 175 171 169 168 166 163 161 161 160 160 160 161
192 192 194 194 193 193 194 194 196 197 198 198 200 202 201 200 200 200 200 202 203 205 209 211 213 216 216 221 230 232 232 236 244 285 311 328 340 348 349 350 351 354 354 345 343 351 355 360 6 11 11 8 3 355 349 353 356 179 170 174 177 180 183 185 187 188 187 186 187 187 184 181 180 178 175 174 172 169 167 166 165 165 165 163 164
196 196 197 197 198 198 198 199 200 201 202 202 203 205 205 204 206 206 207 209 209 209 213 216 218 222 223 227 235 242 247 245 252 279 300 317 329 337 339 340 343 347 352 349 347 354 1 4 7 12 11 8 7 2 353 348 6 135 162 173 176 179 181 182 186 189 189 188 189 187 187 186 184 182 180 180 179 176 174 172 171 170 169 167 168
198 199 200 199 200 201 202 203 203 204 205 206 206 208 208 209 210 212 214 215 214 215 217 220 224 226 227 230 236 245 256 258 260 276 295 309 319 328 331 333 337 338 345 355 356 356 5 12 13 17 17 15 16 14 14 21 79 128 154 168 174 178 180 181 185 188 190 191 191 188 188 189 188 187 185 185 184 182 181 179 177 176 174 172 173
200 201 202 201 201 203 204 205 207 207 208 209 210 210 210 212 214 216 218 219 219 220 223 224 227 230 231 234 240 246 256 264 266 276 290 301 310 318 322 325 330 334 337 346 360 4 7 18 25 30 27 23 24 22 27 47 102 138 150 162 169 174 179 183 186 188 190 192 193 190 190 191 191 191 189 189 188 187 187 186 185 184 181 179 179
202 202 202 202 203 205 206 207 209 210 210 212 214 213 213 215 218 218 221 223 223 224 227 228 231 235 236 238 243 247 254 264 268 275 286 296 303 308 314 320 327 333 334 338 353 9 11 20 33 38 32 26 25 27 32 45 79 135 148 156 163 170 178 185 188 189 189 190 192 192 193 193 193 193 193 192 191 191 191 191 191 190 188 186 185
205 205 205 205 205 206 208 209 211 212 212 214 216 216 216 218 220 221 223 226 228 229 231 232 235 238 240 242 245 248 254 261 266 272 282 293 299 304 309 317 326 332 335 337 344 357 7 19 34 36 30 24 24 30 38 46 67 109 140 154 160 167 177 184 188 190 191 191 191 192 193 194 194 194 195 195 194 194 194 195 196 195 194 192 191
208 208 208 208 208 208 210 210 212 214 214 216 218 218 218 220 223 224 226 229 231 233 234 236 239 241 243 246 247 249 252 258 263 269 278 287 292 297 302 310 320 328 332 335 342 353 360 9 21 26 25 26 29 34 41 49 66 93 117 145 158 163 171 180 185 188 191 193 192 192 194 195 195 195 195 196 196 196 197 198 198 199 198 197 196
211 212 212 212 211 211 213 213 213 215 216 218 220 220 221 222 225 227 229 232 234 237 238 240 242 244 245 247 249 250 252 256 260 265 273 280 284 289 294 301 311 320 325 329 339 351 356 5 13 17 20 26 32 35 39 48 64 84 102 135 155 161 166 174 181 185 190 193 193 193 194 195 195 195 196 196 197 198 198 199 199 201 201 200 199
215 217 217 216 215 214 217 218 217 217 218 220 222 223 224 225 228 230 232 234 236 240 242 242 244 245 246 247 248 250 252 255 258 262 268 273 277 282 288 293 301 310 316 322 333 344 351 0 6 9 13 19 27 33 37 46 57 71 99 135 153 161 167 173 179 183 186 190 192 193 194 194 194 195 196 197 198 199 200 200 201 202 202 203 203
219 220 220 220 219 219 220 221 221 221 221 222 224 226 226 228 230 233 235 237 238 241 243 244 245 247 248 248 248 250 252 254 257 260 265 269 273 277 281 284 291 300 306 312 322 333 344 354 358 2 9 16 23 29 35 43 49 56 80 130 150 157 165 172 177 180 184 187 190 192 194 194 195 196 197 198 199 200 201 201 202 203 203 204 204
222 223 223 223 223 223 224 224 224 225 225 225 227 228 229 231 232 234 237 239 240 242 244 245 247 249 249 249 249 250 251 253 255 258 262 265 269 273 274 275 280 288 294 302 310 320 336 350 355 0 9 16 22 27 34 40 43 49 59 93 134 149 160 169 175 179 182 186 190 192 194 195 196 198 200 200 200 200 202 203 204 205 205 205 205
225 226 226 226 225 226 227 227 227 229 229 230 231 232 233 234 235 237 239 241 243 244 246 248 249 250 250 250 250 250 251 252 254 255 258 260 263 267 268 268 272 277 283 289 297 306 322 341 352 2 12 16 22 29 34 38 43 50 61 84 119 146 159 164 170 177 181 186 190 193 195 197 199 200 201 202 201 202 203 204 205 205 205 206 207
227 228 229 228 228 228 229 230 230 231 232 233 234 236 237 238 239 239 241 243 245 247 248 250 251 251 251 252 251 251 251 251 253 254 255 256 258 262 263 262 263 268 273 277 285 292 301 323 339 354 13 18 20 27 31 38 46 53 67 87 111 138 154 162 168 175 180 185 190 192 195 198 200 202 203 203 203 204 205 205 206 206 206 207 208
229 230 231 231 231 231 231 232 233 235 235 235 236 238 240 241 240 240 242 243 244 247 249 250 251 251 252 252 251 251 251 251 252 253 254 253 255 258 259 258 259 261 266 269 274 278 283 299 310 328 359 6 8 18 27 36 44 52 69 90 110 130 146 157 165 171 178 184 188 192 195 197 199 202 203 205 205 206 207 207 207 207 208 209 209
233 234 233 232 233 234 235 236 238 239 240 241 241 241 242 243 243 241 241 242 244 247 248 249 250 251 252 252 251 250 250 250 250 251 252 251 252 255 255 256 255 256 260 263 265 266 269 279 284 299 325 341 355 5 15 29 37 50 70 91 111 128 141 151 158 165 174 181 186 191 195 197 199 201 203 205 207 208 209 209 209 208 209 210 211
235 237 236 235 237 237 237 239 241 241 241 243 245 243 243 245 245 244 242 242 243 245 246 248 249 251 252 252 252 251 250 250 250 249 249 249 249 251 252 253 252 252 254 257 258 258 261 267 275 286 297 316 346 355 6 20 27 44 68 89 113 128 137 147 153 161 170 178 184 189 193 197 199 200 202 204 207 209 210 210 210 210 211 211 212
236 238 238 238 240 240 238 239 241 242 242 243 245 245 245 246 247 247 246 245 243 244 246 247 248 249 251 252 252 252 251 251 250 249 248 247 247 248 249 251 251 250 251 253 254 253 255 259 266 274 276 286 318 335 352 4 16 36 60 86 117 134 137 143 150 157 165 173 182 188 192 196 199 201 202 204 206 208 210 211 212 212 213 213 214
237 240 239 238 239 240 240 240 241 242 243 244 246 246 247 248 249 250 251 250 248 247 248 248 248 249 250 251 252 252 252 252 251 249 248 246 245 245 247 249 249 247 247 249 250 249 250 252 256 262 264 271 287 299 314 328 349 16 55 99 138 153 146 144 148 155 161 168 178 184 190 194 198 201 203 205 206 208 210 212 213 214 215 216 216
238 240 238 236 236 238 242 244 244 244 246 248 248 249 250 251 251 251 251 251 249 249 249 249 249 250 251 251 251 251 252 253 251 249 248 246 244 244 245 247 246 245 245 246 247 246 245 246 249 252 255 261 271 276 283 289 284 278 120 162 180 172 157 149 150 157 162 167 175 181 188 193 197 201 204 206 208 209 210 212 214 216 217 218 218
228 236 234 233 233 235 239 243 245 246 249 251 252 253 253 254 254 253 251 249 248 248 248 248 249 250 251 252 251 251 252 252 251 249 248 246 243 242 243 244 244 244 244 245 245 244 242 241 243 246 250 254 261 265 267 273 263 234 203 189 180 171 166 160 156 161 165 169 175 180 186 191 196 201 204 207 209 211 212 213 214 216 218 220 220
75 207 232 230 231 234 237 242 248 250 251 254 255 255 256 257 256 253 251 249 248 248 248 248 248 249 250 252 252 251 251 251 250 248 247 246 243 242 241 241 241 242 243 243 243 241 239 238 239 242 247 250 254 257 259 267 270 254 233 207 184 175 171 165 164 169 171 172 175 179 186 191 196 200 204 207 210 213 214 215 215 217 219 220 221
56 53 31 253 245 248 248 252 256 256 257 259 259 257 257 259 257 254 251 251 250 249 249 249 249 249 250 251 253 252 250 249 249 247 245 245 243 242 240 239 239 240 241 241 241 240 237 236 238 240 243 246 249 251 252 260 270 262 250 244 212 187 178 172 172 177 177 176 177 180 185 190 196 200 204 207 211 213 215 216 217 218 219 220 221
52 50 45 29 316 275 264 266 268 266 264 262 262 263 263 263 261 258 257 255 253 251 251 251 250 250 250 251 253 253 249 248 249 246 244 244 242 241 240 239 238 238 239 239 239 238 236 235 237 239 240 243 245 246 247 251 259 256 250 253 230 201 206 197 188 187 186 184 183 186 189 194 198 201 204 208 212 215 217 218 219 220 220 221 223
47 45 41 36 20 347 305 288 285 280 275 271 273 278 277 273 269 267 265 261 257 254 254 254 253 252 252 251 253 254 250 249 251 248 245 243 241 240 239 238 237 237 238 238 238 236 234 234 235 237 238 240 242 242 242 244 252 255 247 245 235 228 236 222 211 199 191 191 191 194 198 202 203 205 208 211 214 217 219 220 221 222 222 223 225
40 39 35 31 21 6 345 321 306 296 292 293 293 294 291 285 279 275 272 266 261 257 256 256 255 254 253 252 253 253 250 251 252 249 246 242 240 239 237 237 236 236 237 237 237 235 233 233 233 235 236 237 239 240 239 239 245 250 245 243 241 237 235 235 228 200 189 197 201 204 208 209 209 210 213 215 217 219 221 222 223 224 225 226 227
30 28 25 21 14 3 350 336 325 314 306 304 303 301 297 293 288 283 279 272 267 262 259 259 257 256 255 253 252 251 250 251 251 249 246 242 240 239 237 236 235 235 236 236 236 234 232 232 233 233 233 234 236 238 238 237 240 244 243 243 243 238 240 255 253 218 202 209 212 216 219 217 215 214 218 221 221 222 224 225 225 226 228 229 231
21 16 13 9 3 356 348 340 333 325 318 312 308 304 300 297 293 290 286 280 274 269 264 262 259 257 256 254 253 251 251 251 250 249 248 243 239 239 237 236 235 235 235 235 235 234 232 232 232 233 232 232 234 236 237 236 239 241 239 240 241 241 246 255 255 240 229 228 225 225 226 227 224 222 224 224 224 225 227 228 228 228 229 230 232
14 10 6 1 355 349 342 335 330 325 322 319 313 307 303 299 296 294 291 287 282 277 273 269 264 260 258 257 255 253 251 250 250 250 249 243 239 239 238 238 236 235 234 234 234 233 232 232 232 232 232 231 231 233 236 236 237 240 240 240 240 241 244 246 249 246 241 243 239 232 230 233 232 231 230 228 227 229 230 230 230 231 231 231 232
9 6 2 358 353 346 340 332 326 323 320 317 313 307 303 300 297 294 293 291 288 284 281 278 271 265 262 260 259 256 253 252 251 250 249 246 242 239 239 239 238 235 234 234 234 233 232 232 232 231 231 231 230 230 234 235 236 238 240 240 240 240 241 241 243 244 243 245 244 236 230 233 237 237 234 233 231 232 233 233 232 233 234 232 232
2 359 355 351 348 344 340 333 327 322 318 314 311 306 302 300 297 294 292 292 292 290 286 282 278 272 267 264 262 260 257 255 253 250 250 249 246 242 239 239 239 236 235 234 234 233 233 232 232 231 230 231 230 230 232 234 236 237 238 240 240 241 240 240 239 239 241 244 246 243 235 235 244 240 234 235 236 235 237 236 235 236 236 235 234
354 350 347 343 341 339 336 334 329 324 319 314 309 305 302 299 296 294 293 292 291 291 289 284 281 278 274 270 266 263 261 259 255 252 250 249 247 244 241 239 239 237 235 233 234 234 233 233 232 231 232 231 231 231 232 233 234 236 237 238 239 239 240 239 237 237 239 241 244 247 244 244 248 243 234 234 236 237 240 239 238 238 237 237 237
351 348 345 342 339 336 334 333 329 325 321 317 312 308 303 300 297 295 293 292 290 289 288 286 283 281 278 275 272 268 266 263 258 254 251 247 246 245 242 240 238 237 235 233 233 234 233 233 233 233 233 232 232 232 232 233 233 234 236 237 238 239 239 238 238 239 240 241 243 246 247 247 248 247 241 236 235 238 242 240 239 240 239 237 238